Tracking 31030 objects as of 17-Jul-2025
HD Live streaming from Space Station
objects crossing your sky now

CSTP-1.1

Track CSTP-1.1 now!
10-day predictions
CSTP-1.1 is classified as:


NORAD ID: 57202
Int'l Code: 2023-091AN
Perigee: 521.8 km
Apogee: 535.9 km
Inclination: 97.6 °
Period: 95.1 minutes
Semi major axis: 6899 km
RCS: Unknown
Launch date: June 27, 2023
Source: (TBD)
Launch site: VOSTOCHNY COSMODROME (VOSTO)

Uplink (MHz):
Downlink (MHz): 436.075
Beacon (MHz):
Mode: LoRa
Call sign:
Status: Active

Your satellite tracking list
Your tracking list is empty




NASA's NSSDC Master Catalog

Two Line Element Set (TLE):
1 57202U 23091AN  25197.86806677  .00002928  00000-0  16135-3 0  9993
2 57202  97.5617 253.5624 0010217 184.2881 175.8265 15.14763122113127
Source of the keplerian elements: AFSPC